{"data":{"norad_id":55293,"epoch":"2026-09-20T09:20:23.443008Z","epoch_age_seconds":102888,"freshness":"FRESH","line1":"1 55293U 23010AA  26263.38916022 -.00000507  00000+0 -34674-4 0  9991","line2":"2 55293  69.9979 253.5318 0003175 273.0710  87.0085 14.98335314202438","mean_motion":14.98335314,"eccentricity":0.0003175,"inclination_deg":69.9979,"raan_deg":253.5318,"arg_perigee_deg":273.071,"mean_anomaly_deg":87.0085,"bstar":-3.4674e-5,"rev_number":20243,"period_min":96.106658272355,"perigee_km":569.83277686096,"apogee_km":574.24613891172,"semimajor_km":6950.1764578863,"source":"CELESTRAK","updated_at":"2026-09-21T09:00:33.169943Z"}}